Time,TemperatureF,DewpointF,PressureIn,WindDirection,WindDirectionDegrees,WindSpeedMPH,WindSpeedGustMPH,Humidity,HourlyPrecipIn,Conditions,Clouds,dailyrainin,SolarRadiationWatts/m^2,SoftwareType,DateUTC
2013-08-03 00:02:00,68.0,67.0,29.87,East,92,1.0,2.0,97,0.00,,,-99.99,0.000000,,2013-08-03 04:02:00,
2013-08-03 00:12:00,68.0,67.0,29.87,East,92,1.0,2.0,97,0.00,,,-99.99,0.000000,,2013-08-03 04:12:00,
2013-08-03 00:22:00,68.0,67.0,29.87,East,92,1.0,2.0,97,0.00,,,-99.99,0.000000,,2013-08-03 04:22:00,
2013-08-03 00:32:00,68.0,66.0,29.88,SSE,153,1.0,4.0,93,0.00,,,-99.99,0.000000,,2013-08-03 04:32:00,
2013-08-03 00:43:00,68.0,66.0,29.88,ESE,112,1.0,3.0,93,0.00,,,-99.99,0.000000,,2013-08-03 04:43:00,
2013-08-03 00:53:00,68.0,66.0,29.88,ESE,112,1.0,3.0,93,0.00,,,-99.99,0.000000,,2013-08-03 04:53:00,
2013-08-03 01:02:00,68.0,66.0,29.88,ESE,112,1.0,3.0,93,0.00,,,-99.99,0.000000,,2013-08-03 05:02:00,
2013-08-03 01:12:00,68.0,66.0,29.88,ESE,112,1.0,3.0,93,0.00,,,-99.99,0.000000,,2013-08-03 05:12:00,
2013-08-03 01:22:00,68.0,65.0,29.87,SE,138,1.0,3.0,91,0.00,,,-99.99,0.000000,,2013-08-03 05:22:00,
2013-08-03 01:42:00,67.0,64.0,29.86,ESE,105,0.0,1.0,91,0.00,,,-99.99,0.000000,,2013-08-03 05:42:00,
2013-08-03 01:52:00,66.0,64.0,29.86,East,84,0.0,1.0,93,0.00,,,-99.99,0.000000,,2013-08-03 05:52:00,
2013-08-03 02:02:00,66.0,64.0,29.86,East,84,0.0,1.0,93,0.00,,,-99.99,0.000000,,2013-08-03 06:02:00,
2013-08-03 02:12:00,66.0,64.0,29.85,SSE,167,0.0,2.0,92,0.00,,,-99.99,0.000000,,2013-08-03 06:12:00,
2013-08-03 02:23:00,66.0,64.0,29.85,SE,134,0.0,2.0,92,0.00,,,-99.99,0.000000,,2013-08-03 06:23:00,
2013-08-03 02:33:00,66.0,64.0,29.85,SE,134,0.0,2.0,92,0.00,,,-99.99,0.000000,,2013-08-03 06:33:00,
2013-08-03 02:42:00,66.0,64.0,29.85,SE,134,0.0,2.0,92,0.00,,,-99.99,0.000000,,2013-08-03 06:42:00,
2013-08-03 02:52:00,66.0,63.0,29.85,ENE,77,1.0,3.0,90,0.00,,,-99.99,0.000000,,2013-08-03 06:52:00,
2013-08-03 03:02:00,66.0,63.0,29.85,ENE,77,1.0,3.0,90,0.00,,,-99.99,0.000000,,2013-08-03 07:02:00,
2013-08-03 03:12:00,66.0,63.0,29.85,ESE,107,1.0,3.0,90,0.00,,,-99.99,0.000000,,2013-08-03 07:12:00,
2013-08-03 03:22:00,66.0,63.0,29.85,ESE,107,1.0,3.0,90,0.00,,,-99.99,0.000000,,2013-08-03 07:22:00,
2013-08-03 03:32:00,65.0,62.0,29.84,SSE,150,0.0,0.0,90,0.00,,,-99.99,0.000000,,2013-08-03 07:32:00,
2013-08-03 03:43:00,65.0,62.0,29.84,SE,145,0.0,0.0,90,0.00,,,-99.99,0.000000,,2013-08-03 07:43:00,
2013-08-03 03:52:00,65.0,62.0,29.84,SE,145,0.0,0.0,90,0.00,,,-99.99,0.000000,,2013-08-03 07:52:00,
2013-08-03 04:02:00,65.0,62.0,29.84,SE,134,1.0,2.0,91,0.00,,,-99.99,0.000000,,2013-08-03 08:02:00,
2013-08-03 04:12:00,65.0,62.0,29.84,SE,134,1.0,2.0,91,0.00,,,-99.99,0.000000,,2013-08-03 08:12:00,
2013-08-03 04:22:00,65.0,62.0,29.84,SE,134,1.0,2.0,91,0.00,,,-99.99,0.000000,,2013-08-03 08:22:00,
2013-08-03 04:32:00,65.0,62.0,29.84,SE,134,1.0,2.0,91,0.00,,,-99.99,0.000000,,2013-08-03 08:32:00,
2013-08-03 04:43:00,66.0,62.0,29.84,SSE,150,1.0,3.0,87,0.00,,,-99.99,0.000000,,2013-08-03 08:43:00,
2013-08-03 04:52:00,66.0,62.0,29.84,SSE,150,1.0,3.0,87,0.00,,,-99.99,0.000000,,2013-08-03 08:52:00,
2013-08-03 05:02:00,66.0,62.0,29.84,SSE,150,1.0,3.0,87,0.00,,,-99.99,0.000000,,2013-08-03 09:02:00,
2013-08-03 05:12:00,66.0,62.0,29.85,East,92,1.0,3.0,86,0.00,,,-99.99,0.000000,,2013-08-03 09:12:00,
2013-08-03 05:22:00,66.0,62.0,29.85,East,92,1.0,3.0,86,0.00,,,-99.99,0.000000,,2013-08-03 09:22:00,
2013-08-03 05:32:00,66.0,62.0,29.85,East,92,1.0,3.0,86,0.00,,,-99.99,0.000000,,2013-08-03 09:32:00,
2013-08-03 05:43:00,66.0,62.0,29.85,East,92,1.0,3.0,86,0.00,,,-99.99,0.000000,,2013-08-03 09:43:00,
2013-08-03 05:53:00,66.0,62.0,29.85,East,92,1.0,3.0,86,0.00,,,-99.99,0.000000,,2013-08-03 09:53:00,
2013-08-03 06:02:00,66.0,62.0,29.85,East,92,1.0,3.0,86,0.00,,,-99.99,0.000000,,2013-08-03 10:02:00,
2013-08-03 06:12:00,66.0,62.0,29.85,East,92,1.0,3.0,86,0.00,,,-99.99,0.000000,,2013-08-03 10:12:00,
2013-08-03 06:33:00,66.0,62.0,29.86,East,92,1.0,3.0,86,0.00,,,-99.99,0.000000,,2013-08-03 10:33:00,
2013-08-03 06:40:00,66.0,62.0,29.85,East,92,1.0,3.0,86,0.00,,,-99.99,0.000000,,2013-08-03 10:40:00,
2013-08-03 06:42:00,66.0,62.0,29.86,East,92,1.0,3.0,86,0.00,,,-99.99,0.000000,,2013-08-03 10:42:00,
2013-08-03 06:53:00,66.0,62.0,29.85,East,92,1.0,3.0,86,0.00,,,-99.99,0.000000,,2013-08-03 10:53:00,
2013-08-03 07:02:00,66.0,62.0,29.85,East,92,1.0,3.0,86,0.00,,,-99.99,0.000000,,2013-08-03 11:02:00,
2013-08-03 07:12:00,66.0,62.0,29.85,East,92,1.0,3.0,86,0.00,,,-99.99,0.000000,,2013-08-03 11:12:00,
2013-08-03 07:22:00,66.0,62.0,29.85,East,92,1.0,3.0,86,0.00,,,-99.99,0.000000,,2013-08-03 11:22:00,
2013-08-03 07:32:00,66.0,62.0,29.85,East,92,1.0,3.0,86,0.00,,,-99.99,0.000000,,2013-08-03 11:32:00,
2013-08-03 07:53:00,67.0,63.0,29.86,East,82,2.0,10.0,87,0.00,,,-99.99,0.000000,,2013-08-03 11:53:00,
2013-08-03 08:03:00,67.0,63.0,29.86,East,82,2.0,10.0,87,0.00,,,-99.99,0.000000,,2013-08-03 12:03:00,
2013-08-03 08:22:00,67.0,63.0,29.86,ENE,67,1.0,6.0,88,0.00,,,-99.99,0.000000,,2013-08-03 12:22:00,
2013-08-03 08:33:00,66.0,63.0,29.86,East,80,2.0,7.0,90,0.00,,,-99.99,0.000000,,2013-08-03 12:33:00,
2013-08-03 08:43:00,66.0,63.0,29.86,East,80,2.0,7.0,90,0.00,,,-99.99,0.000000,,2013-08-03 12:43:00,
2013-08-03 08:52:00,66.0,63.0,29.86,East,80,2.0,7.0,90,0.00,,,-99.99,0.000000,,2013-08-03 12:52:00,
2013-08-03 09:02:00,66.0,63.0,29.86,East,80,2.0,7.0,90,0.00,,,-99.99,0.000000,,2013-08-03 13:02:00,
2013-08-03 09:12:00,66.0,64.0,29.86,ESE,106,1.0,4.0,94,0.01,,,-99.99,0.000000,,2013-08-03 13:12:00,
2013-08-03 09:22:00,66.0,64.0,29.86,ESE,106,1.0,4.0,94,0.01,,,-99.99,0.000000,,2013-08-03 13:22:00,
2013-08-03 09:33:00,66.0,64.0,29.86,ESE,106,1.0,4.0,94,0.01,,,-99.99,0.000000,,2013-08-03 13:33:00,
2013-08-03 09:43:00,66.0,65.0,29.86,ENE,71,1.0,3.0,95,0.02,,,-99.99,0.000000,,2013-08-03 13:43:00,
2013-08-03 09:52:00,66.0,65.0,29.86,ESE,117,1.0,3.0,95,0.02,,,-99.99,0.000000,,2013-08-03 13:52:00,
2013-08-03 10:02:00,66.0,65.0,29.86,West,267,1.0,5.0,95,0.01,,,-99.99,0.000000,,2013-08-03 14:02:00,
2013-08-03 10:12:00,66.0,65.0,29.86,SE,136,1.0,4.0,95,0.01,,,-99.99,0.000000,,2013-08-03 14:12:00,
2013-08-03 10:22:00,66.0,65.0,29.86,SE,132,1.0,5.0,96,0.01,,,-99.99,0.000000,,2013-08-03 14:22:00,
2013-08-03 10:43:00,66.0,65.0,29.86,ESE,110,1.0,5.0,97,0.00,,,-99.99,0.000000,,2013-08-03 14:43:00,
2013-08-03 10:52:00,66.0,65.0,29.86,ESE,110,1.0,5.0,97,0.00,,,-99.99,0.000000,,2013-08-03 14:52:00,
2013-08-03 11:02:00,66.0,65.0,29.86,ESE,110,1.0,5.0,97,0.00,,,-99.99,0.000000,,2013-08-03 15:02:00,
2013-08-03 11:12:00,66.0,65.0,29.86,ESE,110,1.0,5.0,97,0.00,,,-99.99,0.000000,,2013-08-03 15:12:00,
2013-08-03 11:23:00,67.0,66.0,29.87,ESE,108,0.0,0.0,97,0.00,,,-99.99,0.000000,,2013-08-03 15:23:00,
2013-08-03 11:32:00,67.0,66.0,29.87,SE,124,0.0,0.0,96,0.00,,,-99.99,0.000000,,2013-08-03 15:32:00,
2013-08-03 11:43:00,67.0,66.0,29.87,SE,124,0.0,0.0,96,0.00,,,-99.99,0.000000,,2013-08-03 15:43:00,
2013-08-03 11:53:00,67.0,66.0,29.87,SE,124,0.0,0.0,96,0.00,,,-99.99,0.000000,,2013-08-03 15:53:00,
2013-08-03 12:02:00,67.0,66.0,29.87,SE,124,0.0,0.0,96,0.00,,,-99.99,0.000000,,2013-08-03 16:02:00,
2013-08-03 12:13:00,68.0,67.0,29.86,SSE,152,0.0,7.0,96,0.01,,,-99.99,0.000000,,2013-08-03 16:13:00,
2013-08-03 12:23:00,68.0,67.0,29.86,SSE,152,0.0,7.0,96,0.01,,,-99.99,0.000000,,2013-08-03 16:23:00,
2013-08-03 12:33:00,68.0,67.0,29.86,SSE,162,0.0,3.0,96,0.01,,,-99.99,0.000000,,2013-08-03 16:33:00,
2013-08-03 12:43:00,68.0,67.0,29.86,South,170,1.0,4.0,96,0.01,,,-99.99,0.000000,,2013-08-03 16:43:00,
2013-08-03 12:53:00,68.0,67.0,29.86,WSW,245,1.0,6.0,95,0.00,,,-99.99,0.000000,,2013-08-03 16:53:00,
2013-08-03 13:03:00,69.0,67.0,29.86,WSW,245,2.0,7.0,93,0.00,,,-99.99,0.000000,,2013-08-03 17:03:00,
2013-08-03 13:12:00,69.0,67.0,29.86,WSW,245,2.0,7.0,93,0.00,,,-99.99,0.000000,,2013-08-03 17:12:00,
2013-08-03 13:22:00,70.0,67.0,29.86,WNW,300,1.0,5.0,91,0.00,,,-99.99,0.000000,,2013-08-03 17:22:00,
2013-08-03 13:32:00,70.0,67.0,29.86,SSE,160,0.0,3.0,91,0.00,,,-99.99,0.000000,,2013-08-03 17:32:00,
2013-08-03 13:43:00,70.0,67.0,29.86,SE,143,1.0,6.0,90,0.00,,,-99.99,0.000000,,2013-08-03 17:43:00,
2013-08-03 13:52:00,70.0,67.0,29.86,SE,143,1.0,6.0,90,0.00,,,-99.99,0.000000,,2013-08-03 17:52:00,
2013-08-03 14:02:00,70.0,67.0,29.86,NW,315,1.0,6.0,90,0.00,,,-99.99,0.000000,,2013-08-03 18:02:00,
2013-08-03 14:12:00,70.0,67.0,29.86,West,266,1.0,7.0,90,0.00,,,-99.99,0.000000,,2013-08-03 18:12:00,
2013-08-03 14:22:00,70.0,67.0,29.85,South,184,1.0,3.0,90,0.00,,,-99.99,0.000000,,2013-08-03 18:22:00,
2013-08-03 14:32:00,70.0,67.0,29.85,South,184,1.0,3.0,90,0.00,,,-99.99,0.000000,,2013-08-03 18:32:00,
2013-08-03 14:43:00,70.0,67.0,29.85,South,184,1.0,3.0,90,0.00,,,-99.99,0.000000,,2013-08-03 18:43:00,
2013-08-03 14:53:00,70.0,67.0,29.85,South,184,1.0,3.0,90,0.00,,,-99.99,0.000000,,2013-08-03 18:53:00,
2013-08-03 15:03:00,71.0,67.0,29.85,SSE,155,1.0,4.0,87,0.00,,,-99.99,0.000000,,2013-08-03 19:03:00,
2013-08-03 15:12:00,71.0,67.0,29.84,SE,124,1.0,3.0,86,0.00,,,-99.99,0.000000,,2013-08-03 19:12:00,
2013-08-03 15:22:00,72.0,67.0,29.84,SE,124,1.0,5.0,84,0.00,,,-99.99,0.000000,,2013-08-03 19:22:00,
2013-08-03 15:32:00,73.0,68.0,29.84,SE,142,1.0,5.0,83,0.00,,,-99.99,0.000000,,2013-08-03 19:32:00,
2013-08-03 15:43:00,73.0,68.0,29.83,SE,143,1.0,4.0,84,0.00,,,-99.99,0.000000,,2013-08-03 19:43:00,
2013-08-03 15:53:00,74.0,68.0,29.83,North,11,0.0,4.0,82,0.00,,,-99.99,0.000000,,2013-08-03 19:53:00,
2013-08-03 16:02:00,74.0,68.0,29.83,North,11,0.0,4.0,82,0.00,,,-99.99,0.000000,,2013-08-03 20:02:00,
2013-08-03 16:12:00,74.0,68.0,29.83,North,11,0.0,4.0,82,0.00,,,-99.99,0.000000,,2013-08-03 20:12:00,
2013-08-03 16:32:00,75.0,67.0,29.83,ESE,117,2.0,6.0,76,0.00,,,-99.99,0.000000,,2013-08-03 20:32:00,
2013-08-03 16:42:00,75.0,67.0,29.83,ESE,117,2.0,6.0,76,0.00,,,-99.99,0.000000,,2013-08-03 20:42:00,
2013-08-03 16:52:00,76.0,68.0,29.82,SSE,162,1.0,6.0,77,0.00,,,-99.99,0.000000,,2013-08-03 20:52:00,
2013-08-03 17:02:00,76.0,68.0,29.82,SSE,162,1.0,6.0,77,0.00,,,-99.99,0.000000,,2013-08-03 21:02:00,
2013-08-03 17:12:00,75.0,68.0,29.82,SSW,199,2.0,5.0,78,0.00,,,-99.99,0.000000,,2013-08-03 21:12:00,
2013-08-03 17:22:00,74.0,67.0,29.82,SSW,200,1.0,6.0,79,0.00,,,-99.99,0.000000,,2013-08-03 21:22:00,
2013-08-03 17:32:00,74.0,67.0,29.82,SSW,200,1.0,6.0,79,0.00,,,-99.99,0.000000,,2013-08-03 21:32:00,
2013-08-03 17:42:00,74.0,67.0,29.82,SSW,200,1.0,6.0,79,0.00,,,-99.99,0.000000,,2013-08-03 21:42:00,
2013-08-03 17:52:00,74.0,68.0,29.81,WSW,248,1.0,4.0,81,0.00,,,-99.99,0.000000,,2013-08-03 21:52:00,
2013-08-03 18:02:00,73.0,68.0,29.81,SE,139,1.0,3.0,85,0.00,,,-99.99,0.000000,,2013-08-03 22:02:00,
2013-08-03 18:12:00,73.0,68.0,29.81,SE,139,1.0,3.0,85,0.00,,,-99.99,0.000000,,2013-08-03 22:12:00,
2013-08-03 18:22:00,72.0,67.0,29.81,South,186,1.0,6.0,83,0.00,,,-99.99,0.000000,,2013-08-03 22:22:00,
2013-08-03 18:33:00,72.0,67.0,29.81,South,186,1.0,6.0,83,0.00,,,-99.99,0.000000,,2013-08-03 22:33:00,
2013-08-03 18:43:00,72.0,68.0,29.80,ESE,115,1.0,4.0,88,0.00,,,-99.99,0.000000,,2013-08-03 22:43:00,
2013-08-03 18:52:00,71.0,67.0,29.80,SE,134,1.0,3.0,86,0.00,,,-99.99,0.000000,,2013-08-03 22:52:00,
2013-08-03 19:02:00,71.0,67.0,29.81,SSE,155,1.0,5.0,86,0.00,,,-99.99,0.000000,,2013-08-03 23:02:00,
2013-08-03 19:12:00,71.0,67.0,29.81,SSE,155,1.0,5.0,86,0.00,,,-99.99,0.000000,,2013-08-03 23:12:00,
2013-08-03 19:22:00,71.0,66.0,29.81,SSE,158,1.0,5.0,85,0.00,,,-99.99,0.000000,,2013-08-03 23:22:00,
2013-08-03 19:32:00,71.0,67.0,29.81,South,191,2.0,6.0,86,0.00,,,-99.99,0.000000,,2013-08-03 23:32:00,
2013-08-03 19:42:00,70.0,65.0,29.81,ESE,120,1.0,6.0,85,0.00,,,-99.99,0.000000,,2013-08-03 23:42:00,
2013-08-03 19:52:00,70.0,66.0,29.82,East,95,2.0,7.0,86,0.00,,,-99.99,0.000000,,2013-08-03 23:52:00,
2013-08-03 20:03:00,70.0,65.0,29.82,ESE,103,1.0,4.0,85,0.00,,,-99.99,0.000000,,2013-08-04 00:03:00,
2013-08-03 20:12:00,70.0,65.0,29.82,SSW,193,1.0,5.0,85,0.00,,,-99.99,0.000000,,2013-08-04 00:12:00,
2013-08-03 20:22:00,70.0,65.0,29.82,SSW,193,1.0,5.0,85,0.00,,,-99.99,0.000000,,2013-08-04 00:22:00,
2013-08-03 20:32:00,70.0,65.0,29.82,SSW,193,1.0,5.0,85,0.00,,,-99.99,0.000000,,2013-08-04 00:32:00,
2013-08-03 20:42:00,68.0,64.0,29.83,ESE,115,0.0,2.0,88,0.00,,,-99.99,0.000000,,2013-08-04 00:42:00,
2013-08-03 20:53:00,68.0,64.0,29.83,ESE,115,0.0,2.0,88,0.00,,,-99.99,0.000000,,2013-08-04 00:53:00,
2013-08-03 21:02:00,68.0,64.0,29.84,East,101,0.0,2.0,88,0.00,,,-99.99,0.000000,,2013-08-04 01:02:00,
2013-08-03 21:12:00,68.0,64.0,29.84,East,101,0.0,2.0,88,0.00,,,-99.99,0.000000,,2013-08-04 01:12:00,
2013-08-03 21:22:00,68.0,65.0,29.85,NW,314,1.0,3.0,89,0.00,,,-99.99,0.000000,,2013-08-04 01:22:00,
2013-08-03 21:32:00,68.0,65.0,29.86,NNW,338,0.0,2.0,89,0.00,,,-99.99,0.000000,,2013-08-04 01:32:00,
2013-08-03 21:42:00,68.0,65.0,29.86,NNW,338,0.0,2.0,89,0.00,,,-99.99,0.000000,,2013-08-04 01:42:00,
2013-08-03 21:53:00,68.0,65.0,29.86,NNW,338,0.0,2.0,89,0.00,,,-99.99,0.000000,,2013-08-04 01:53:00,
2013-08-03 22:03:00,68.0,65.0,29.86,NNW,338,0.0,2.0,89,0.00,,,-99.99,0.000000,,2013-08-04 02:03:00,
2013-08-03 22:12:00,68.0,65.0,29.86,NNW,338,0.0,2.0,89,0.00,,,-99.99,0.000000,,2013-08-04 02:12:00,
2013-08-03 22:32:00,65.0,63.0,29.85,WSW,252,0.0,0.0,92,0.00,,,-99.99,0.000000,,2013-08-04 02:32:00,
2013-08-03 22:42:00,65.0,63.0,29.85,WSW,252,0.0,0.0,92,0.00,,,-99.99,0.000000,,2013-08-04 02:42:00,
2013-08-03 22:52:00,64.0,63.0,29.86,WSW,253,0.0,0.0,95,0.00,,,-99.99,0.000000,,2013-08-04 02:52:00,
2013-08-03 23:02:00,64.0,63.0,29.86,WSW,253,0.0,0.0,95,0.00,,,-99.99,0.000000,,2013-08-04 03:02:00,
2013-08-03 23:12:00,64.0,63.0,29.86,WSW,253,0.0,0.0,95,0.00,,,-99.99,0.000000,,2013-08-04 03:12:00,
2013-08-03 23:22:00,64.0,63.0,29.86,WSW,253,0.0,0.0,95,0.00,,,-99.99,0.000000,,2013-08-04 03:22:00,
2013-08-03 23:32:00,64.0,63.0,29.86,WSW,253,0.0,0.0,95,0.00,,,-99.99,0.000000,,2013-08-04 03:32:00,